| time (UTC) | temp F | wind direction | speed MPH | gust MPH | rain 1hr in | rain 24hr in | rain mn in | humidity % | barometer mb |
| 20260504044557 | 77 | 216 | 4.0 | 7.0 | 0.00 | 0.25 | 0.25 | 100 | 1015.2 |
| 20260504043058 | 77 | 218 | 2.0 | 7.0 | 0.00 | 0.25 | 0.25 | 100 | 1015.3 |
| 20260504041600 | 77 | 225 | 3.0 | 5.0 | 0.00 | 0.25 | 0.25 | 100 | 1015.2 |
| 20260504040052 | 77 | 236 | 2.0 | 8.0 | 0.00 | 0.25 | 0.25 | 100 | 1015.1 |
| 20260504034559 | 77 | 251 | 2.0 | 8.0 | 0.00 | 0.25 | 0.25 | 100 | 1015.1 |
| 20260504033059 | 77 | 229 | 4.0 | 6.0 | 0.00 | 0.25 | 0.25 | 100 | 1015.0 |
| 20260504031605 | 77 | 209 | 3.0 | 7.0 | 0.00 | 0.25 | 0.25 | 100 | 1015.0 |
| 20260504030112 | 77 | 192 | 2.0 | 6.0 | 0.00 | 0.25 | 0.25 | 100 | 1014.7 |
| 20260504024552 | 77 | 99 | 3.0 | 7.0 | 0.00 | 0.25 | 0.25 | 100 | 1014.5 |
| 20260504023055 | 78 | 282 | 4.0 | 9.0 | 0.00 | 0.25 | 0.25 | 100 | 1014.6 |
| 20260504021600 | 78 | 202 | 6.0 | 10.0 | 0.00 | 0.25 | 0.25 | 100 | 1014.5 |
| 20260504020052 | 78 | 203 | 4.0 | 9.0 | 0.00 | 0.25 | 0.25 | 100 | 1014.4 |
| 20260504014549 | 78 | 229 | 3.0 | 8.0 | 0.00 | 0.25 | 0.25 | 100 | 1014.1 |
| 20260504013049 | 78 | 220 | 4.0 | 7.0 | 0.00 | 0.25 | 0.25 | 100 | 1014.0 |
| 20260504011545 | 78 | 208 | 5.0 | 7.0 | 0.00 | 0.25 | 0.25 | 100 | 1013.8 |
| 20260504010051 | 78 | 198 | 3.0 | 5.0 | 0.00 | 0.25 | 0.25 | 100 | 1013.7 |
| 20260504004549 | 78 | 215 | 4.0 | 8.0 | 0.00 | 0.25 | 0.25 | 100 | 1013.5 |
| 20260504003050 | 78 | 198 | 4.0 | 8.0 | 0.00 | 0.25 | 0.25 | 100 | 1013.3 |
| 20260504001551 | 78 | 202 | 4.0 | 7.0 | 0.00 | 0.25 | 0.25 | 100 | 1013.2 |
| 20260504000129 | 78 | 200 | 5.0 | 8.0 | 0.00 | 0.25 | 0.25 | 100 | 1012.7 |
| 20260503234553 | 79 | 211 | 4.0 | 9.0 | 0.00 | 0.25 | 0.25 | 100 | 1012.8 |
| 20260503233048 | 79 | 202 | 6.0 | 10.0 | 0.00 | 0.25 | 0.25 | 100 | 1012.7 |
| 20260503231548 | 79 | 205 | 2.0 | 6.0 | 0.00 | 0.25 | 0.25 | 100 | 1012.3 |
| 20260503230050 | 79 | 259 | 5.0 | 9.0 | 0.00 | 0.25 | 0.25 | 100 | 1012.4 |
| 20260503224551 | 79 | 209 | 5.0 | 8.0 | 0.00 | 0.25 | 0.25 | 100 | 1012.4 |
| 20260503223046 | 78 | 106 | 1.0 | 4.0 | 0.00 | 0.25 | 0.25 | 100 | 1012.2 |
| 20260503221549 | 78 | 220 | 3.0 | 5.0 | 0.06 | 0.25 | 0.25 | 100 | 1012.3 |
| 20260503220054 | 78 | 261 | 3.0 | 5.0 | 0.18 | 0.25 | 0.25 | 100 | 1012.2 |
| 20260503214547 | 78 | 219 | 3.0 | 5.0 | 0.24 | 0.25 | 0.25 | 100 | 1012.6 |
| 20260503213048 | 78 | 196 | 6.0 | 9.0 | 0.24 | 0.24 | 0.24 | 98 | 1012.7 |
| 20260503211546 | 78 | 103 | 1.0 | 10.0 | 0.18 | 0.18 | 0.18 | 98 | 1012.9 |
| 20260503210050 | 81 | 15 | 6.0 | 11.0 | 0.05 | 0.05 | 0.05 | 97 | 1012.9 |
| 20260503204548 | 83 | 317 | 1.0 | 5.0 | 0.00 | 0.00 | 0.00 | 94 | 1012.8 |
| 20260503203052 | 84 | 293 | 2.0 | 10.0 | 0.00 | 0.00 | 0.00 | 91 | 1013.0 |
| 20260503201547 | 85 | 272 | 4.0 | 10.0 | 0.00 | 0.00 | 0.00 | 89 | 1013.1 |
| 20260503200053 | 85 | 355 | 6.0 | 11.0 | 0.00 | 0.00 | 0.00 | 90 | 1013.0 |
| 20260503194553 | 84 | 203 | 2.0 | 11.0 | 0.00 | 0.00 | 0.00 | 90 | 1013.5 |
| 20260503193050 | 85 | 266 | 3.0 | 14.0 | 0.00 | 0.00 | 0.00 | 89 | 1013.7 |
| 20260503191549 | 86 | 219 | 2.0 | 9.0 | 0.00 | 0.00 | 0.00 | 89 | 1013.9 |
| 20260503190047 | 85 | 72 | 3.0 | 10.0 | 0.00 | 0.00 | 0.00 | 90 | 1014.1 |
| 20260503184605 | 87 | 241 | 3.0 | 12.0 | 0.00 | 0.00 | 0.00 | 87 | 1014.2 |
| 20260503183100 | 85 | 294 | 4.0 | 9.0 | 0.00 | 0.00 | 0.00 | 90 | 1014.5 |
| 20260503181554 | 84 | 87 | 2.0 | 9.0 | 0.00 | 0.00 | 0.00 | 92 | 1014.8 |
| 20260503180056 | 85 | 233 | 4.0 | 12.0 | 0.00 | 0.00 | 0.00 | 88 | 1014.9 |
| 20260503174552 | 86 | 169 | 2.0 | 8.0 | 0.00 | 0.00 | 0.00 | 88 | 1015.0 |
| 20260503173050 | 85 | 271 | 3.0 | 9.0 | 0.00 | 0.00 | 0.00 | 88 | 1015.2 |
| 20260503171609 | 86 | 221 | 3.0 | 8.0 | 0.00 | 0.00 | 0.00 | 86 | 1015.3 |
| 20260503081551 | 80 | 203 | 0.0 | 1.0 | 0.00 | 0.00 | 0.00 | 99 | 1012.1 |
| 20260503071607 | 81 | 309 | 2.0 | 5.0 | 0.00 | 0.00 | 0.00 | 98 | 1012.6 |
| 20260503054600 | 82 | 331 | 3.0 | 9.0 | 0.00 | 0.00 | 0.00 | 96 | 1013.7 |